Tracking 20092 objects as of 14-Dec-2019
HD Live streaming from Space Station
objects crossing your sky now

COSMOS 2251 DEB

Track COSMOS 2251 DEB now!
10-day predictions


NORAD ID: 37959
Int'l Code: 1993-036BPJ
Perigee: 694.2 km
Apogee: 795.2 km
Inclination: 74.0 °
Period: 99.6 minutes
Semi major axis: 7115 km
RCS: 0.0013 m2 (small)
Launch date: June 16, 1993
Source: Commonwealth of Independent States (former USSR) (CIS)
Launch site: PLESETSK MISSILE AND SPACE COMPLEX (PKMTR)

Note: This is SATELLITE DEBRIS
aabbcc
Your satellite tracking list
Your tracking list is empty




NASA's NSSDC Master Catalog

Two Line Element Set (TLE):
1 37959U 93036BPJ 19347.91570794 +.00000220 +00000-0 +67244-4 0  9991
2 37959 074.0129 215.2492 0070982 168.6375 203.5955 14.46354791484510
Source of the keplerian elements: AFSPC